Regional Weather Roundup
Issued by NWS Mt. Holly, NJ

Home | Current Version | Previous Version | Text Only | Print | Product List | Glossary On
Versions: 1 2 3 4 5 6 7 8 9 10 11 12 13 14 15 16 17 18 19 20 21 22 23 24 25 26 27 28
000
ASUS41 KPHI 230112
RWRPHI

REGIONAL WEATHER ROUNDUP
NATIONAL WEATHER SERVICE MOUNT HOLLY NJ
900 PM EDT THU JUN 22 2017

NOTE:  "FAIR" INDICATES FEW OR NO CLOUDS BELOW 12,000 FEET WITH NO
SIGNIFICANT WEATHER AND/OR OBSTRUCTIONS TO VISIBILITY.

 * = STATION DOES NOT REPORT PRECIPITATION (E.G. RAIN, SNOW, ETC.)
        OR FOG.

NJZ015>026-230200-
SOUTHERN NEW JERSEY

CITY           SKY/WX    TMP DP  RH WIND       PRES   REMARKS
POMONA         NOT AVBL
WILDWOOD*      CLOUDY    79  72  79 CALM      29.96R
MILLVILLE      CLOUDY    78  75  90 CALM      29.94R
WRIGHTSTOWN    CLOUDY    78  70  76 S7        29.90R
MOUNT HOLLY    CLOUDY    79  69  71 CALM      29.92S
TRENTON        CLOUDY    82  68  62 SW6       29.91F

$$
NJZ001>014-230200-
NORTHERN NEW JERSEY

CITY           SKY/WX    TMP DP  RH WIND       PRES   REMARKS
SUSSEX         MOCLDY    76  68  76 CALM      29.91R
ANDOVER*         N/A     74  67  78 CALM      29.92S
MORRISTOWN     PTCLDY    82  66  57 SW6       29.91R
NEWARK         CLOUDY    80  66  62 CALM      29.90S
TETERBORO      CLOUDY    79  65  62 SW3       29.89S
CALDWELL       PTCLDY    84  64  50 CALM      29.90S
SOMERVILLE     CLOUDY    77  69  76 CALM      29.89R
ALLAIRE*       CLOUDY    78  70  76 SW6       29.93S
TOMS RIVER*    PTCLDY    76  72  87 SW5       29.94S

$$
PAZ043-044-047-054-055-060>062-066>071-230200-
EASTERN PENNSYLVANIA

CITY           SKY/WX    TMP DP  RH WIND       PRES   REMARKS
PHILADELPHIA   CLOUDY    84  68  58 SW10      29.93S
NORTH PHILA    MOCLDY    84  68  58 W7        29.94R
BLUE BELL*     CLOUDY    79  70  73 SW5       29.95S
DOYLESTOWN     CLOUDY    81  69  67 VRB6      29.92S
QUAKERTOWN*    CLOUDY    79  72  78 SW5       29.95S
PERKASIE*      FAIR      77  72  83 SW3       29.95S
POTTSTOWN      CLOUDY    80  71  74 SW5       29.95R
LANCASTER      CLOUDY    83  72  69 SW8       29.94R
COATESVILLE    CLOUDY    79  70  73 VRB3      29.98R
READING        CLOUDY    83  72  69 SW8       29.92R
ALLENTOWN      CLOUDY    82  68  62 SW10      29.92R
MOUNT POCONO   CLOUDY    72  65  78 W6        29.98S
HAZLETON         N/A     73  64  73 CALM      30.01R
LEHIGHTON      FAIR      73  70  88 CALM      29.93S
WILKES BARRE   CLOUDY    80  67  64 SW12      29.93R

$$
DEZALL-MDZ008-012-015-019-020-230200-
DELAWARE AND EASTERN MARYLAND

CITY           SKY/WX    TMP DP  RH WIND       PRES   REMARKS
WILMINGTON     CLOUDY    82  71  69 SW3       29.94S
DOVER          CLOUDY    80  77  89 SW7       29.93S
GEORGETOWN     CLOUDY    80  73  79 S5        29.96S
EASTON         CLOUDY    82  72  69 CALM      29.99S
ABERDEEN       PTCLDY    78  73  85 SW3       29.94S
PATUXENT       CLOUDY    82  73  74 SW6       29.95S
OCEAN CITY     CLOUDY    76  71  85 SW5       29.97S
WALLOPS ISLAND CLOUDY    78  75  90 S5        29.97S
CAMBRIDGE      CLEAR     81  73  78 CALM      29.95S
SALISBURY      CLOUDY    78  76  93 CALM      29.96R

$$
PAZ001-021-NYZ056-072-MDZ011-DCZ001-230200-
OTHER NEARBY LOCATIONS

CITY           SKY/WX    TMP DP  RH WIND       PRES   REMARKS
HARRISBURG     TSTM      78  73  84 NW8       29.94R
STATE COLLEGE  CLOUDY    72  68  88 W5        29.98S
WILLIAMSPORT   CLOUDY    77  70  79 W6        29.92R
BINGHAMTON     CLEAR     72  63  73 SW6       29.92S
NEW YORK CITY  PTCLDY    78  65  63 CALM      29.93S
BALTIMORE      CLOUDY    80  72  76 CALM      29.95R
WASHINGTON DC  CLOUDY    84  74  71 SW8       29.95R HX  91

$$




USA.gov is the U.S. government's official web portal to all federal, state and local government web resources and services.